,

(GMT )
Resolute CS

Weather History for CXRB - August, 2013

Change the Weather History Date:

Wednesday, August 21, 2013

  Actual Average Record
Temperature  
Mean Temperature 26 °F -  
Max Temperature 29 °F - - ()
Min Temperature 23 °F - - ()
Degree Days  
Heating Degree Days 39    
Moisture  
Dew Point 23 °F    
Average Humidity 86    
Maximum Humidity 96    
Minimum Humidity 72    
Precipitation  
Precipitation 0.00 in - - ()
Sea Level Pressure  
Sea Level Pressure 29.42 in    
Wind  
Wind Speed 15 mph ()    
Max Wind Speed 21 mph    
Max Gust Speed 25 mph    
T = Trace of Precipitation, MM = Missing Value Source: Averaged Metar Reports

Daily Weather History Graph

Daily Weather History Graph

Search for Another Location

Airport or City:

Trip Planner

Search our weather history database for the weather conditions in past years. The results will help you decide how hot, cold, wet, or windy it might be!

Date:

Astronomy

Aug. 21, 2013 Rise Set
Actual Time 2:36 AM MDT 10:01 PM MDT
Civil Twilight Sun does not set Sun does not set
Nautical Twilight Sun does not set Sun does not set
Astronomical Twilight Sun does not set Sun does not set
Moon 7:53 PM MDT (8/21) 5:04 AM MDT (8/21)
Length of Visible Light 24h 00m
Length of Day
19h 25m
Full, 99% of the Moon is Illuminated
Aug 21
Full
Aug 28
Last Quarter
Sep 5
New
Sep 12
First Quarter
Sep 19
Full

Hourly Weather History & Observations

Time (MDT) Temp. Windchill Dew Point Humidity Pressure Visibility Wind Dir Wind Speed Gust Speed Precip Events Conditions
12:00 AM 28.8 °F 17.0 °F 25.0 °F 86% 29.41 in - South 16.1 mph - N/A   Unknown
1:00 AM 27.7 °F 15.2 °F 25.7 °F 92% 29.39 in - SSW 17.3 mph - N/A   Unknown
2:00 AM 27.5 °F 15.4 °F 26.1 °F 94% 29.38 in - SSW 16.1 mph - N/A   Unknown
3:00 AM 27.7 °F 15.6 °F 26.2 °F 94% 29.37 in - SSW 16.1 mph - N/A   Unknown
4:00 AM 28.0 °F 15.7 °F 27.1 °F 96% 29.35 in - SSW 17.3 mph - N/A   Unknown
5:00 AM 28.0 °F 16.1 °F 27.1 °F 96% 29.34 in - South 16.1 mph - N/A   Unknown
6:00 AM 28 °F - 27 °F 95% 29.33 in - SSW 19.6 mph - -  
6:00 AM 28.0 °F 14.9 °F 27.1 °F 96% 29.33 in - SSW 19.6 mph - N/A   Unknown
7:00 AM 28.4 °F 15.8 °F 27.5 °F 96% 29.32 in - SSW 18.4 mph - N/A   Unknown
8:00 AM 29.3 °F 17.7 °F 27.9 °F 94% 29.32 in - SW 16.1 mph - N/A   Unknown
9:00 AM 28.2 °F 16.3 °F 27.0 °F 95% 29.33 in - West 16.1 mph - N/A   Unknown
10:00 AM 27.0 °F 13.2 °F 23.9 °F 88% 29.35 in - West 20.7 mph - N/A   Unknown
11:00 AM 26.4 °F 12.8 °F 22.6 °F 86% 29.37 in - WNW 19.6 mph - N/A   Unknown
12:00 PM 25 °F - 21 °F 78% 29.40 in - WNW 18.4 mph - -  
12:00 PM 25.2 °F 11.6 °F 21.0 °F 84% 29.40 in - WNW 18.4 mph - N/A   Unknown
1:00 PM 24.4 °F 10.2 °F 19.4 °F 81% 29.42 in - NW 19.6 mph - N/A   Unknown
2:00 PM 24.4 °F 10.2 °F 18.5 °F 78% 29.45 in - WNW 19.6 mph 25.3 mph N/A   Unknown
3:00 PM 24.3 °F 11.7 °F 17.6 °F 76% 29.47 in - WNW 15.0 mph - N/A   Unknown
4:00 PM 24.4 °F 11.0 °F 17.1 °F 73% 29.48 in - WNW 17.3 mph - N/A   Unknown
5:00 PM 24.3 °F 11.2 °F 19.0 °F 80% 29.49 in - West 16.1 mph - N/A   Unknown
6:00 PM 24 °F - 19 °F 72% 29.51 in - West 15.0 mph - -  
6:00 PM 23.9 °F 11.2 °F 18.7 °F 80% 29.51 in - West 15.0 mph - N/A   Unknown
7:00 PM 24.1 °F 11.5 °F 18.9 °F 80% 29.52 in - WSW 15.0 mph - N/A   Unknown
8:00 PM 24.3 °F 12.7 °F 18.9 °F 80% 29.52 in - WSW 12.7 mph - N/A   Unknown
9:00 PM 24.4 °F 13.0 °F 17.8 °F 76% 29.51 in - SSW 12.7 mph - N/A   Unknown
10:00 PM 23.5 °F 9.9 °F 21.2 °F 91% 29.51 in - SSW 17.3 mph - N/A   Unknown
11:00 PM 24.6 °F 11.3 °F 21.4 °F 87% 29.50 in - WSW 17.3 mph - N/A   Unknown